Location: *
(12.5665°N, 8.3471°E)
Time: 00:44:22
(UTC+00:00)

Cosmos 1697 Rocket - Pass Details

Date: 23 September 2019
Orbit: 831 x 844 km, 71.0° (Epoch: 18 October)

Event Time Altitude Azimuth Distance (km) Brightness Sun altitude
Rises 04:27:07 0° 213° (SSW) 3,376 5.5 -12.7°
Reaches altitude 10° 04:29:42 10° 220° (SW) 2,444 4.7 -12.1°
Maximum altitude 04:34:52 38° 288° (WNW) 1,251 3.2 -10.8°
Drops below altitude 10° 04:40:04 10° 355° (N) 2,453 5.1 -9.5°
Sets 04:42:41 0° 4° (N) 3,389 5.9 -8.9°
